Tracking 17856 objects as of 28-September-2016
HD Live streaming from Space Station
objects crossing your sky now

NAVSTAR 30 (USA 88)

Track NAVSTAR 30 (USA 88) now!
NAVSTAR 30 (USA 88) is classified as:


NORAD ID: 22446
Int'l Code: 1993-007A
Perigee: 21,289.4 km
Apogee: 21,412.6 km
Inclination: 55.5 °
Period: 765.6 minutes
Semi major axis: 27722 km
RCS: 2.5118 m2 (large)
Launch date: February 3, 1993
Source: United States (US)
Launch site: AIR FORCE EASTERN TEST RANGE (AFETR)
PRN:
Your satellite tracking list
Your tracking list is empty





NASA's NSSDC Master Catalog

Two Line Element Set (TLE):
1 22446U 93007A   16271.31145187  .00000000  00000-0  10000-3 0  9998
2 22446  55.4743   9.0017 0022228 327.3662  32.5181  1.88090572167284
Source of the keplerian elements: AFSPC

N2YO: 527